| time (UTC) | temp F | wind direction | speed MPH | gust MPH | rain 1hr in | rain 24hr in | rain mn in | humidity % | barometer mb |
| 20260510130017 | 58 | 23 | 7.0 | 17.0 | 0.00 | 0.00 | 0.00 | 80 | 1019.4 |
| 20260510125017 | 58 | 45 | 4.0 | 11.0 | 0.00 | 0.00 | 0.00 | 79 | 1019.0 |
| 20260510124017 | 59 | 23 | 7.0 | 15.0 | 0.00 | 0.00 | 0.00 | 78 | 1019.0 |
| 20260510123017 | 60 | 23 | 6.0 | 13.0 | 0.00 | 0.00 | 0.00 | 79 | 1018.8 |
| 20260510122018 | 60 | 23 | 4.0 | 12.0 | 0.00 | 0.00 | 0.00 | 81 | 1018.9 |
| 20260510121018 | 60 | 45 | 3.0 | 12.0 | 0.00 | 0.00 | 0.00 | 80 | 1018.8 |
| 20260510120017 | 60 | 23 | 3.0 | 8.0 | 0.00 | 0.00 | 0.00 | 80 | 1018.6 |
| 20260510115017 | 60 | 45 | 3.0 | 9.0 | 0.00 | 0.00 | 0.00 | 80 | 1018.3 |
| 20260510114017 | 60 | 45 | 2.0 | 6.0 | 0.00 | 0.00 | 0.00 | 79 | 1018.5 |
| 20260510113017 | 61 | 23 | 2.0 | 10.0 | 0.00 | 0.00 | 0.00 | 78 | 1018.6 |
| 20260510112017 | 61 | 45 | 2.0 | 5.0 | 0.00 | 0.00 | 0.00 | 78 | 1018.4 |
| 20260510111017 | 61 | 45 | 1.0 | 6.0 | 0.00 | 0.00 | 0.00 | 77 | 1017.9 |
| 20260510110017 | 61 | 113 | 2.0 | 6.0 | 0.00 | 0.00 | 0.00 | 77 | 1017.9 |
| 20260510105017 | 61 | 113 | 3.0 | 10.0 | 0.00 | 0.00 | 0.00 | 78 | 1018.0 |
| 20260510104017 | 61 | 113 | 2.0 | 7.0 | 0.00 | 0.00 | 0.00 | 78 | 1017.9 |
| 20260510103017 | 61 | 23 | 2.0 | 5.0 | 0.00 | 0.00 | 0.00 | 78 | 1017.9 |
| 20260510102017 | 61 | 135 | 1.0 | 5.0 | 0.00 | 0.00 | 0.00 | 78 | 1017.9 |
| 20260510101017 | 61 | 113 | 2.0 | 7.0 | 0.00 | 0.00 | 0.00 | 78 | 1017.8 |
| 20260510100018 | 61 | 23 | 3.0 | 9.0 | 0.00 | 0.00 | 0.00 | 78 | 1017.7 |
| 20260510095017 | 62 | 113 | 2.0 | 8.0 | 0.00 | 0.00 | 0.00 | 78 | 1017.3 |
| 20260510094017 | 62 | 135 | 1.0 | 4.0 | 0.00 | 0.00 | 0.00 | 78 | 1017.4 |
| 20260510093019 | 62 | 113 | 2.0 | 5.0 | 0.00 | 0.00 | 0.00 | 77 | 1017.3 |
| 20260510092017 | 62 | 135 | 3.0 | 9.0 | 0.00 | 0.00 | 0.00 | 77 | 1016.8 |
| 20260510091017 | 62 | 113 | 2.0 | 7.0 | 0.00 | 0.00 | 0.00 | 76 | 1016.6 |
| 20260510090017 | 62 | 113 | 5.0 | 12.0 | 0.00 | 0.00 | 0.00 | 76 | 1016.5 |
| 20260510085017 | 62 | 113 | 4.0 | 10.0 | 0.00 | 0.00 | 0.00 | 75 | 1016.5 |
| 20260510084017 | 62 | 135 | 4.0 | 12.0 | 0.00 | 0.00 | 0.00 | 74 | 1016.2 |
| 20260510083019 | 63 | 135 | 4.0 | 11.0 | 0.00 | 0.00 | 0.00 | 74 | 1016.4 |
| 20260510082019 | 63 | 135 | 4.0 | 8.0 | 0.00 | 0.00 | 0.00 | 73 | 1016.3 |
| 20260510081019 | 63 | 135 | 4.0 | 10.0 | 0.00 | 0.00 | 0.00 | 72 | 1016.2 |
| 20260510080017 | 64 | 135 | 4.0 | 13.0 | 0.00 | 0.00 | 0.00 | 71 | 1015.9 |
| 20260510075017 | 65 | 135 | 3.0 | 10.0 | 0.00 | 0.00 | 0.00 | 70 | 1015.2 |
| 20260510074019 | 66 | 113 | 4.0 | 12.0 | 0.00 | 0.00 | 0.00 | 70 | 1015.0 |
| 20260510073018 | 66 | 135 | 3.0 | 9.0 | 0.00 | 0.00 | 0.00 | 70 | 1014.6 |
| 20260510072017 | 67 | 68 | 3.0 | 7.0 | 0.00 | 0.00 | 0.00 | 69 | 1014.8 |
| 20260510071019 | 67 | 113 | 2.0 | 7.0 | 0.00 | 0.00 | 0.00 | 70 | 1014.6 |
| 20260510070019 | 67 | 45 | 2.0 | 6.0 | 0.00 | 0.00 | 0.00 | 69 | 1015.0 |
| 20260510065018 | 68 | 23 | 2.0 | 8.0 | 0.00 | 0.00 | 0.00 | 69 | 1015.4 |
| 20260510064017 | 68 | 23 | 4.0 | 11.0 | 0.00 | 0.00 | 0.00 | 68 | 1015.5 |
| 20260510063019 | 68 | 23 | 2.0 | 6.0 | 0.00 | 0.00 | 0.00 | 68 | 1015.0 |
| 20260510062019 | 69 | 135 | 2.0 | 8.0 | 0.00 | 0.00 | 0.00 | 67 | 1015.0 |
| 20260510061019 | 69 | 68 | 1.0 | 4.0 | 0.00 | 0.00 | 0.00 | 66 | 1015.1 |
| 20260510060019 | 70 | 113 | 2.0 | 8.0 | 0.00 | 0.00 | 0.00 | 65 | 1015.4 |
| 20260510055019 | 70 | 113 | 3.0 | 14.0 | 0.00 | 0.00 | 0.00 | 64 | 1015.3 |
| 20260510054017 | 71 | 113 | 2.0 | 6.0 | 0.00 | 0.00 | 0.00 | 63 | 1015.0 |
| 20260510053018 | 71 | 23 | 2.0 | 8.0 | 0.00 | 0.00 | 0.00 | 62 | 1014.9 |
| 20260510052018 | 71 | 113 | 1.0 | 4.0 | 0.00 | 0.00 | 0.00 | 61 | 1015.0 |
| 20260510051019 | 71 | 113 | 1.0 | 4.0 | 0.00 | 0.00 | 0.00 | 60 | 1014.5 |
| 20260510050019 | 72 | 135 | 1.0 | 4.0 | 0.00 | 0.00 | 0.00 | 59 | 1014.5 |
| 20260510045017 | 72 | 113 | 1.0 | 4.0 | 0.00 | 0.00 | 0.00 | 57 | 1014.1 |
| 20260510044020 | 73 | 113 | 1.0 | 4.0 | 0.00 | 0.00 | 0.00 | 55 | 1014.2 |
| 20260510043017 | 73 | 113 | 1.0 | 3.0 | 0.00 | 0.00 | 0.00 | 52 | 1014.1 |
| 20260510042017 | 73 | 135 | 1.0 | 3.0 | 0.00 | 0.00 | 0.00 | 50 | 1013.8 |
| 20260510041018 | 74 | 0.0 | 2.0 | 0.00 | 0.00 | 0.00 | 47 | 1013.6 | |
| 20260510040017 | 74 | 113 | 1.0 | 4.0 | 0.00 | 0.00 | 0.00 | 44 | 1013.6 |
| 20260510035017 | 76 | 113 | 1.0 | 4.0 | 0.00 | 0.00 | 0.00 | 41 | 1013.8 |
| 20260510034017 | 77 | 113 | 3.0 | 7.0 | 0.00 | 0.00 | 0.00 | 29 | 1013.7 |
| 20260510033017 | 78 | 23 | 1.0 | 4.0 | 0.00 | 0.00 | 0.00 | 23 | 1013.2 |
| 20260510032017 | 78 | 68 | 1.0 | 5.0 | 0.00 | 0.00 | 0.00 | 21 | 1013.0 |
| 20260510031017 | 78 | 90 | 1.0 | 3.0 | 0.00 | 0.00 | 0.00 | 19 | 1012.7 |
| 20260510030017 | 76 | 248 | 2.0 | 9.0 | 0.00 | 0.00 | 0.00 | 20 | 1012.1 |
| 20260510025017 | 75 | 68 | 1.0 | 5.0 | 0.00 | 0.00 | 0.00 | 21 | 1011.7 |
| 20260510024017 | 75 | 0.0 | 2.0 | 0.00 | 0.00 | 0.00 | 20 | 1011.1 | |
| 20260510023017 | 76 | 0.0 | 0.0 | 0.00 | 0.00 | 0.00 | 19 | 1010.7 | |
| 20260510022017 | 77 | 0.0 | 0.0 | 0.00 | 0.00 | 0.00 | 18 | 1010.4 | |
| 20260510021017 | 78 | 0.0 | 1.0 | 0.00 | 0.00 | 0.00 | 17 | 1009.9 | |
| 20260510020018 | 79 | 0.0 | 0.0 | 0.00 | 0.00 | 0.00 | 17 | 1009.7 | |
| 20260510015017 | 81 | 0.0 | 1.0 | 0.00 | 0.00 | 0.00 | 16 | 1009.4 | |
| 20260510014019 | 82 | 0.0 | 1.0 | 0.00 | 0.00 | 0.00 | 16 | 1009.4 | |
| 20260510013017 | 84 | 0.0 | 0.0 | 0.00 | 0.00 | 0.00 | 15 | 1009.2 | |
| 20260510012017 | 85 | 0.0 | 0.0 | 0.00 | 0.00 | 0.00 | 14 | 1008.9 | |
| 20260510011017 | 86 | 0.0 | 3.0 | 0.00 | 0.00 | 0.00 | 14 | 1008.7 | |
| 20260510010019 | 88 | 0.0 | 3.0 | 0.00 | 0.00 | 0.00 | 13 | 1008.5 | |
| 20260510005017 | 89 | 0.0 | 2.0 | 0.00 | 0.00 | 0.00 | 12 | 1008.4 | |
| 20260510004017 | 90 | 45 | 1.0 | 4.0 | 0.00 | 0.00 | 0.00 | 12 | 1008.3 |
| 20260510003017 | 91 | 45 | 3.0 | 5.0 | 0.00 | 0.00 | 0.00 | 11 | 1008.7 |
| 20260510002017 | 92 | 0.0 | 0.0 | 0.00 | 0.00 | 0.00 | 10 | 1008.5 | |
| 20260510001019 | 94 | 45 | 1.0 | 3.0 | 0.00 | 0.00 | 0.00 | 10 | 1008.8 |
| 20260510000019 | 94 | 45 | 1.0 | 3.0 | 0.00 | 0.00 | 0.00 | 10 | 1009.2 |
| 20260509235019 | 95 | 315 | 3.0 | 9.0 | 0.00 | 0.00 | 0.00 | 9 | 1009.3 |
| 20260509234017 | 96 | 68 | 1.0 | 5.0 | 0.00 | 0.00 | 0.00 | 9 | 1009.6 |
| 20260509233019 | 96 | 315 | 4.0 | 10.0 | 0.00 | 0.00 | 0.00 | 10 | 1009.7 |
| 20260509232019 | 96 | 23 | 4.0 | 9.0 | 0.00 | 0.00 | 0.00 | 9 | 1009.8 |
| 20260509231018 | 96 | 315 | 3.0 | 8.0 | 0.00 | 0.00 | 0.00 | 9 | 1009.9 |
| 20260509230019 | 97 | 248 | 3.0 | 7.0 | 0.00 | 0.00 | 0.00 | 9 | 1009.9 |
| 20260509225019 | 98 | 338 | 3.0 | 5.0 | 0.00 | 0.00 | 0.00 | 9 | 1010.2 |
| 20260509224019 | 98 | 23 | 4.0 | 8.0 | 0.00 | 0.00 | 0.00 | 9 | 1010.6 |
| 20260509223018 | 98 | 225 | 4.0 | 10.0 | 0.00 | 0.00 | 0.00 | 9 | 1010.8 |
| 20260509222018 | 98 | 338 | 4.0 | 11.0 | 0.00 | 0.00 | 0.00 | 9 | 1010.9 |
| 20260509221019 | 98 | 338 | 4.0 | 9.0 | 0.00 | 0.00 | 0.00 | 10 | 1011.1 |
| 20260509220019 | 98 | 315 | 4.0 | 9.0 | 0.00 | 0.00 | 0.00 | 10 | 1011.1 |
| 20260509215018 | 97 | 0 | 4.0 | 9.0 | 0.00 | 0.00 | 0.00 | 10 | 1011.1 |
| 20260509214017 | 97 | 315 | 5.0 | 12.0 | 0.00 | 0.00 | 0.00 | 11 | 1011.1 |
| 20260509213018 | 97 | 270 | 3.0 | 8.0 | 0.00 | 0.00 | 0.00 | 12 | 1011.5 |
| 20260509212019 | 98 | 270 | 4.0 | 10.0 | 0.00 | 0.00 | 0.00 | 12 | 1011.8 |
| 20260509211018 | 98 | 293 | 6.0 | 12.0 | 0.00 | 0.00 | 0.00 | 11 | 1012.0 |
| 20260509210018 | 97 | 315 | 5.0 | 12.0 | 0.00 | 0.00 | 0.00 | 12 | 1011.9 |
| 20260509205019 | 98 | 315 | 4.0 | 10.0 | 0.00 | 0.00 | 0.00 | 13 | 1012.2 |
| 20260509204019 | 97 | 315 | 5.0 | 10.0 | 0.00 | 0.00 | 0.00 | 15 | 1012.2 |
| 20260509203018 | 96 | 315 | 5.0 | 11.0 | 0.00 | 0.00 | 0.00 | 15 | 1012.5 |
| 20260509202019 | 96 | 248 | 5.0 | 12.0 | 0.00 | 0.00 | 0.00 | 16 | 1012.4 |
| 20260509201019 | 95 | 225 | 4.0 | 9.0 | 0.00 | 0.00 | 0.00 | 17 | 1012.4 |
| 20260509200018 | 95 | 293 | 6.0 | 14.0 | 0.00 | 0.00 | 0.00 | 17 | 1012.6 |
| 20260509195018 | 94 | 270 | 5.0 | 12.0 | 0.00 | 0.00 | 0.00 | 18 | 1012.6 |
| 20260509194018 | 93 | 180 | 3.0 | 7.0 | 0.00 | 0.00 | 0.00 | 19 | 1012.7 |
| 20260509193017 | 92 | 248 | 6.0 | 13.0 | 0.00 | 0.00 | 0.00 | 19 | 1013.0 |
| 20260509192018 | 91 | 270 | 5.0 | 11.0 | 0.00 | 0.00 | 0.00 | 20 | 1013.1 |
| 20260509191018 | 91 | 225 | 6.0 | 14.0 | 0.00 | 0.00 | 0.00 | 19 | 1013.2 |
| 20260509190018 | 92 | 225 | 4.0 | 9.0 | 0.00 | 0.00 | 0.00 | 20 | 1013.5 |
| 20260509185018 | 92 | 248 | 6.0 | 12.0 | 0.00 | 0.00 | 0.00 | 19 | 1013.7 |
| 20260509184018 | 90 | 225 | 2.0 | 8.0 | 0.00 | 0.00 | 0.00 | 20 | 1013.5 |
| 20260509183018 | 91 | 248 | 5.0 | 15.0 | 0.00 | 0.00 | 0.00 | 20 | 1013.7 |
| 20260509182018 | 89 | 270 | 6.0 | 14.0 | 0.00 | 0.00 | 0.00 | 21 | 1013.6 |
| 20260509181018 | 89 | 225 | 5.0 | 11.0 | 0.00 | 0.00 | 0.00 | 22 | 1014.1 |
| 20260509180018 | 88 | 203 | 3.0 | 9.0 | 0.00 | 0.00 | 0.00 | 24 | 1014.0 |
| 20260509175018 | 88 | 248 | 4.0 | 11.0 | 0.00 | 0.00 | 0.00 | 24 | 1014.4 |
| 20260509174018 | 87 | 248 | 3.0 | 8.0 | 0.00 | 0.00 | 0.00 | 26 | 1014.1 |
| 20260509173018 | 85 | 180 | 4.0 | 9.0 | 0.00 | 0.00 | 0.00 | 28 | 1014.1 |
| 20260509172028 | 85 | 158 | 6.0 | 14.0 | 0.00 | 0.00 | 0.00 | 29 | 1014.3 |
| 20260509171018 | 84 | 225 | 4.0 | 11.0 | 0.00 | 0.00 | 0.00 | 31 | 1014.4 |
| 20260509170018 | 83 | 158 | 6.0 | 13.0 | 0.00 | 0.00 | 0.00 | 31 | 1014.6 |
| 20260509165018 | 82 | 158 | 5.0 | 10.0 | 0.00 | 0.00 | 0.00 | 31 | 1014.7 |
| 20260509164018 | 82 | 158 | 7.0 | 14.0 | 0.00 | 0.00 | 0.00 | 32 | 1014.8 |
| 20260509163018 | 81 | 158 | 4.0 | 9.0 | 0.00 | 0.00 | 0.00 | 34 | 1015.1 |
| 20260509162018 | 80 | 158 | 6.0 | 15.0 | 0.00 | 0.00 | 0.00 | 34 | 1015.0 |
| 20260509161018 | 79 | 158 | 6.0 | 14.0 | 0.00 | 0.00 | 0.00 | 34 | 1015.2 |
| 20260509160018 | 79 | 158 | 7.0 | 14.0 | 0.00 | 0.00 | 0.00 | 34 | 1015.3 |
| 20260509155018 | 79 | 180 | 5.0 | 10.0 | 0.00 | 0.00 | 0.00 | 36 | 1015.6 |
| 20260509154018 | 78 | 158 | 4.0 | 9.0 | 0.00 | 0.00 | 0.00 | 39 | 1015.5 |
| 20260509153018 | 77 | 158 | 5.0 | 11.0 | 0.00 | 0.00 | 0.00 | 39 | 1015.5 |
| 20260509152017 | 77 | 135 | 4.0 | 8.0 | 0.00 | 0.00 | 0.00 | 41 | 1015.7 |
| 20260509151018 | 76 | 158 | 3.0 | 6.0 | 0.00 | 0.00 | 0.00 | 43 | 1015.9 |
| 20260509150018 | 75 | 180 | 2.0 | 5.0 | 0.00 | 0.00 | 0.00 | 44 | 1016.0 |
| 20260509145017 | 73 | 158 | 2.0 | 5.0 | 0.00 | 0.00 | 0.00 | 47 | 1016.0 |
| 20260509144017 | 72 | 158 | 2.0 | 4.0 | 0.00 | 0.00 | 0.00 | 49 | 1015.8 |
| 20260509143018 | 71 | 135 | 2.0 | 6.0 | 0.00 | 0.00 | 0.00 | 52 | 1015.9 |
| 20260509142018 | 69 | 135 | 2.0 | 4.0 | 0.00 | 0.00 | 0.00 | 57 | 1015.8 |
| 20260509141018 | 68 | 135 | 1.0 | 4.0 | 0.00 | 0.00 | 0.00 | 59 | 1015.9 |
| 20260509140017 | 66 | 135 | 1.0 | 3.0 | 0.00 | 0.00 | 0.00 | 60 | 1015.7 |
| 20260509135018 | 64 | 0.0 | 2.0 | 0.00 | 0.00 | 0.00 | 63 | 1015.7 | |
| 20260509134018 | 62 | 0.0 | 0.0 | 0.00 | 0.00 | 0.00 | 65 | 1015.5 | |
| 20260509133018 | 60 | 0.0 | 0.0 | 0.00 | 0.00 | 0.00 | 64 | 1015.4 | |
| 20260509132017 | 58 | 0.0 | 2.0 | 0.00 | 0.00 | 0.00 | 64 | 1015.2 | |
| 20260509131017 | 56 | 135 | 1.0 | 3.0 | 0.00 | 0.00 | 0.00 | 66 | 1014.8 |